Track ORBCOMM FM 5 now! 10-day predictions ORBCOMM FM 5 is classified as:
1 25117U 97084F 23082.88813015 .00003170 00000-0 10272-2 0 9998 2 25117 45.0166 308.7106 0003331 71.3365 288.7846 14.40696815323645